User: anonymous   Login
Location: Unspecified
(0.0000°N, 0.0000°E)
Time: 23:45:39
(UTC+00:00)
Language:

GRIFEX - Orbit

View from above orbital plane
View from above orbital plane
View from above satellite
View from above satellite

Ground track
Ground track

The orbit data is extracted from the following two-line orbital elements,

1 40379U 15003D   21023.81893125  .00001244  00000-0  54992-4 0  9991
2 40379  99.0844 125.7106 0129823 327.0527  32.2657 15.17275578330258
Epoch (UTC): 23 January 2021 19:39:15
Eccentricity: 0.0129823
inclination: 99.0844°
perigee height: 424 km
apogee height: 603 km
right ascension of ascending node: 125.7106°
argument of perigee: 327.0527°
revolutions per day: 15.17275578
mean anomaly at epoch: 32.2657°
orbit number at epoch: 33025

The dashed part of the orbit path shows where the satellite is in the earth's shadow,  

DLR